Time,TemperatureF,DewpointF,PressureIn,WindDirection,WindDirectionDegrees,WindSpeedMPH,WindSpeedGustMPH,Humidity,HourlyPrecipIn,Conditions,Clouds,dailyrainin,SoftwareType,DateUTC
2013-04-06 00:00:00,47.0,22.0,29.94,North,1,0.0,9.0,36,-99.99,,,-99.99,,2013-04-06 04:00:00,
2013-04-06 00:23:00,47.0,22.0,29.94,North,1,0.0,9.0,36,-99.99,,,-99.99,,2013-04-06 04:23:00,
2013-04-06 00:33:00,47.0,22.0,29.94,North,1,0.0,9.0,36,-99.99,,,-99.99,,2013-04-06 04:33:00,
2013-04-06 00:43:00,47.0,22.0,29.94,North,1,0.0,9.0,36,-99.99,,,-99.99,,2013-04-06 04:43:00,
2013-04-06 00:53:00,47.0,22.0,29.94,North,1,0.0,9.0,36,-99.99,,,-99.99,,2013-04-06 04:53:00,
2013-04-06 01:00:00,46.0,23.0,30.00,North,5,5.0,7.0,40,-99.99,,,-99.99,,2013-04-06 05:00:00,
2013-04-06 01:23:00,46.0,23.0,30.00,North,5,5.0,7.0,40,-99.99,,,-99.99,,2013-04-06 05:23:00,
2013-04-06 01:33:00,46.0,23.0,30.00,North,5,5.0,7.0,40,-99.99,,,-99.99,,2013-04-06 05:33:00,
2013-04-06 01:43:00,46.0,23.0,30.00,North,5,5.0,7.0,40,-99.99,,,-99.99,,2013-04-06 05:43:00,
2013-04-06 01:52:00,46.0,23.0,30.00,North,5,5.0,7.0,40,-99.99,,,-99.99,,2013-04-06 05:52:00,
2013-04-06 02:00:00,44.0,22.0,30.03,North,354,2.0,8.0,42,-99.99,,,-99.99,,2013-04-06 06:00:00,
2013-04-06 02:33:00,44.0,22.0,30.03,North,354,2.0,8.0,42,-99.99,,,-99.99,,2013-04-06 06:33:00,
2013-04-06 02:43:00,44.0,22.0,30.03,North,354,2.0,8.0,42,-99.99,,,-99.99,,2013-04-06 06:43:00,
2013-04-06 02:53:00,44.0,22.0,30.03,North,354,2.0,8.0,42,-99.99,,,-99.99,,2013-04-06 06:53:00,
2013-04-06 03:00:00,41.0,22.0,30.03,NNE,22,2.0,13.0,46,-99.99,,,-99.99,,2013-04-06 07:00:00,
2013-04-06 03:22:00,41.0,22.0,30.03,NNE,22,2.0,13.0,46,-99.99,,,-99.99,,2013-04-06 07:22:00,
2013-04-06 03:45:00,41.0,22.0,30.03,NNE,22,2.0,13.0,46,-99.99,,,-99.99,,2013-04-06 07:45:00,
2013-04-06 03:53:00,41.0,22.0,30.03,NNE,22,2.0,13.0,46,-99.99,,,-99.99,,2013-04-06 07:53:00,
2013-04-06 04:00:00,40.0,21.0,30.06,NW,320,2.0,11.0,46,-99.99,,,-99.99,,2013-04-06 08:00:00,
2013-04-06 04:22:00,40.0,21.0,30.06,NW,320,2.0,11.0,46,-99.99,,,-99.99,,2013-04-06 08:22:00,
2013-04-06 04:32:00,40.0,21.0,30.06,NW,320,2.0,11.0,46,-99.99,,,-99.99,,2013-04-06 08:32:00,
2013-04-06 04:43:00,40.0,21.0,30.06,NW,320,2.0,11.0,46,-99.99,,,-99.99,,2013-04-06 08:43:00,
2013-04-06 04:52:00,40.0,21.0,30.06,NW,320,2.0,11.0,46,-99.99,,,-99.99,,2013-04-06 08:52:00,
2013-04-06 05:00:00,38.0,21.0,30.09,NW,309,3.0,10.0,50,-99.99,,,-99.99,,2013-04-06 09:00:00,
2013-04-06 05:22:00,38.0,21.0,30.09,NW,309,3.0,10.0,50,-99.99,,,-99.99,,2013-04-06 09:22:00,
2013-04-06 05:33:00,38.0,21.0,30.09,NW,309,3.0,10.0,50,-99.99,,,-99.99,,2013-04-06 09:33:00,
2013-04-06 05:43:00,38.0,21.0,30.09,NW,309,3.0,10.0,50,-99.99,,,-99.99,,2013-04-06 09:43:00,
2013-04-06 05:53:00,38.0,21.0,30.09,NW,309,3.0,10.0,50,-99.99,,,-99.99,,2013-04-06 09:53:00,
2013-04-06 06:00:00,37.0,22.0,30.15,NW,315,0.0,9.0,54,-99.99,,,-99.99,,2013-04-06 10:00:00,
2013-04-06 06:23:00,37.0,22.0,30.15,NW,315,0.0,9.0,54,-99.99,,,-99.99,,2013-04-06 10:23:00,
2013-04-06 06:43:00,37.0,22.0,30.15,NW,315,0.0,9.0,54,-99.99,,,-99.99,,2013-04-06 10:43:00,
2013-04-06 06:53:00,37.0,22.0,30.15,NW,315,0.0,9.0,54,-99.99,,,-99.99,,2013-04-06 10:53:00,
2013-04-06 07:00:00,36.0,21.0,30.18,North,0,2.0,12.0,54,-99.99,,,-99.99,,2013-04-06 11:00:00,
2013-04-06 07:23:00,36.0,21.0,30.18,North,0,2.0,12.0,54,-99.99,,,-99.99,,2013-04-06 11:23:00,
2013-04-06 07:33:00,36.0,21.0,30.18,North,0,2.0,12.0,54,-99.99,,,-99.99,,2013-04-06 11:33:00,
2013-04-06 07:43:00,36.0,21.0,30.18,North,0,2.0,12.0,54,-99.99,,,-99.99,,2013-04-06 11:43:00,
2013-04-06 07:53:00,36.0,21.0,30.18,North,0,2.0,12.0,54,-99.99,,,-99.99,,2013-04-06 11:53:00,
2013-04-06 08:00:00,39.0,18.0,30.24,NE,38,4.0,12.0,43,-99.99,,,-99.99,,2013-04-06 12:00:00,
2013-04-06 08:22:00,39.0,18.0,30.24,NE,38,4.0,12.0,43,-99.99,,,-99.99,,2013-04-06 12:22:00,
2013-04-06 08:33:00,39.0,18.0,30.24,NE,38,4.0,12.0,43,-99.99,,,-99.99,,2013-04-06 12:33:00,
2013-04-06 08:44:00,39.0,18.0,30.24,NE,38,4.0,12.0,43,-99.99,,,-99.99,,2013-04-06 12:44:00,
2013-04-06 08:53:00,39.0,18.0,30.24,NE,38,4.0,12.0,43,-99.99,,,-99.99,,2013-04-06 12:53:00,
2013-04-06 09:00:00,40.0,13.0,30.27,North,351,5.0,13.0,32,-99.99,,,-99.99,,2013-04-06 13:00:00,
2013-04-06 09:33:00,40.0,13.0,30.27,North,351,5.0,13.0,32,-99.99,,,-99.99,,2013-04-06 13:33:00,
2013-04-06 09:43:00,40.0,13.0,30.27,North,351,5.0,13.0,32,-99.99,,,-99.99,,2013-04-06 13:43:00,
2013-04-06 09:54:00,40.0,13.0,30.27,North,351,5.0,13.0,32,-99.99,,,-99.99,,2013-04-06 13:54:00,
2013-04-06 10:00:00,43.0,13.0,30.27,NE,46,3.0,12.0,30,-99.99,,,-99.99,,2013-04-06 14:00:00,
2013-04-06 10:23:00,43.0,13.0,30.27,NE,46,3.0,12.0,30,-99.99,,,-99.99,,2013-04-06 14:23:00,
2013-04-06 10:33:00,43.0,13.0,30.27,NE,46,3.0,12.0,30,-99.99,,,-99.99,,2013-04-06 14:33:00,
2013-04-06 10:43:00,43.0,13.0,30.27,NE,46,3.0,12.0,30,-99.99,,,-99.99,,2013-04-06 14:43:00,
2013-04-06 10:53:00,43.0,13.0,30.27,NE,46,3.0,12.0,30,-99.99,,,-99.99,,2013-04-06 14:53:00,
2013-04-06 11:00:00,47.0,13.0,30.30,NW,311,3.0,8.0,25,-99.99,,,-99.99,,2013-04-06 15:00:00,
2013-04-06 11:23:00,47.0,13.0,30.30,NW,311,3.0,8.0,25,-99.99,,,-99.99,,2013-04-06 15:23:00,
2013-04-06 11:33:00,47.0,13.0,30.30,NW,311,3.0,8.0,25,-99.99,,,-99.99,,2013-04-06 15:33:00,
2013-04-06 11:43:00,47.0,13.0,30.30,NW,311,3.0,8.0,25,-99.99,,,-99.99,,2013-04-06 15:43:00,
2013-04-06 11:53:00,47.0,13.0,30.30,NW,311,3.0,8.0,25,-99.99,,,-99.99,,2013-04-06 15:53:00,
2013-04-06 12:00:00,49.0,15.0,30.30,West,271,0.0,9.0,26,-99.99,,,-99.99,,2013-04-06 16:00:00,
2013-04-06 12:23:00,49.0,15.0,30.30,West,271,0.0,9.0,26,-99.99,,,-99.99,,2013-04-06 16:23:00,
2013-04-06 12:33:00,49.0,15.0,30.30,West,271,0.0,9.0,26,-99.99,,,-99.99,,2013-04-06 16:33:00,
2013-04-06 12:43:00,49.0,15.0,30.30,West,271,0.0,9.0,26,-99.99,,,-99.99,,2013-04-06 16:43:00,
2013-04-06 12:53:00,49.0,15.0,30.30,West,271,0.0,9.0,26,-99.99,,,-99.99,,2013-04-06 16:53:00,
2013-04-06 13:00:00,50.0,16.0,30.30,East,90,8.0,13.0,26,-99.99,,,-99.99,,2013-04-06 17:00:00,
2013-04-06 13:22:00,50.0,16.0,30.30,East,90,8.0,13.0,26,-99.99,,,-99.99,,2013-04-06 17:22:00,
2013-04-06 13:33:00,50.0,16.0,30.30,East,90,8.0,13.0,26,-99.99,,,-99.99,,2013-04-06 17:33:00,
2013-04-06 13:43:00,50.0,16.0,30.30,East,90,8.0,13.0,26,-99.99,,,-99.99,,2013-04-06 17:43:00,
2013-04-06 13:52:00,50.0,16.0,30.30,East,90,8.0,13.0,26,-99.99,,,-99.99,,2013-04-06 17:52:00,
2013-04-06 14:00:00,47.0,22.0,30.27,ENE,59,1.0,11.0,37,-99.99,,,-99.99,,2013-04-06 18:00:00,
2013-04-06 14:32:00,47.0,22.0,30.27,ENE,59,1.0,11.0,37,-99.99,,,-99.99,,2013-04-06 18:32:00,
2013-04-06 14:43:00,47.0,22.0,30.27,ENE,59,1.0,11.0,37,-99.99,,,-99.99,,2013-04-06 18:43:00,
2013-04-06 14:52:00,47.0,22.0,30.27,ENE,59,1.0,11.0,37,-99.99,,,-99.99,,2013-04-06 18:52:00,
2013-04-06 15:00:00,48.0,27.0,30.30,SSW,208,4.0,9.0,43,-99.99,,,-99.99,,2013-04-06 19:00:00,
2013-04-06 15:33:00,48.0,27.0,30.30,SSW,208,4.0,9.0,43,-99.99,,,-99.99,,2013-04-06 19:33:00,
2013-04-06 15:42:00,48.0,27.0,30.30,SSW,208,4.0,9.0,43,-99.99,,,-99.99,,2013-04-06 19:42:00,
2013-04-06 15:54:00,48.0,27.0,30.30,SSW,208,4.0,9.0,43,-99.99,,,-99.99,,2013-04-06 19:54:00,
2013-04-06 16:00:00,47.0,25.0,30.27,South,188,4.0,11.0,42,-99.99,,,-99.99,,2013-04-06 20:00:00,
2013-04-06 16:23:00,47.0,25.0,30.27,South,188,4.0,11.0,42,-99.99,,,-99.99,,2013-04-06 20:23:00,
2013-04-06 16:32:00,47.0,25.0,30.27,South,188,4.0,11.0,42,-99.99,,,-99.99,,2013-04-06 20:32:00,
2013-04-06 16:42:00,47.0,25.0,30.27,South,188,4.0,11.0,42,-99.99,,,-99.99,,2013-04-06 20:42:00,
2013-04-06 16:53:00,47.0,25.0,30.27,South,188,4.0,11.0,42,-99.99,,,-99.99,,2013-04-06 20:53:00,
2013-04-06 17:00:00,46.0,26.0,30.27,South,186,1.0,9.0,45,-99.99,,,-99.99,,2013-04-06 21:00:00,
2013-04-06 17:22:00,46.0,26.0,30.27,South,186,1.0,9.0,45,-99.99,,,-99.99,,2013-04-06 21:22:00,
2013-04-06 17:33:00,46.0,26.0,30.27,South,186,1.0,9.0,45,-99.99,,,-99.99,,2013-04-06 21:33:00,
2013-04-06 17:43:00,46.0,26.0,30.27,South,186,1.0,9.0,45,-99.99,,,-99.99,,2013-04-06 21:43:00,
2013-04-06 17:53:00,46.0,26.0,30.27,South,186,1.0,9.0,45,-99.99,,,-99.99,,2013-04-06 21:53:00,
2013-04-06 18:00:00,45.0,26.0,30.27,SW,232,2.0,14.0,48,-99.99,,,-99.99,,2013-04-06 22:00:00,
2013-04-06 18:23:00,45.0,26.0,30.27,SW,232,2.0,14.0,48,-99.99,,,-99.99,,2013-04-06 22:23:00,
2013-04-06 18:35:00,45.0,26.0,30.27,SW,232,2.0,14.0,48,-99.99,,,-99.99,,2013-04-06 22:35:00,
2013-04-06 18:44:00,45.0,26.0,30.27,SW,232,2.0,14.0,48,-99.99,,,-99.99,,2013-04-06 22:44:00,
2013-04-06 18:55:00,45.0,26.0,30.27,SW,232,2.0,14.0,48,-99.99,,,-99.99,,2013-04-06 22:55:00,
2013-04-06 19:00:00,42.0,27.0,30.30,SW,236,2.0,15.0,54,-99.99,,,-99.99,,2013-04-06 23:00:00,
2013-04-06 19:23:00,42.0,27.0,30.30,SW,236,2.0,15.0,54,-99.99,,,-99.99,,2013-04-06 23:23:00,
2013-04-06 19:34:00,42.0,27.0,30.30,SW,236,2.0,15.0,54,-99.99,,,-99.99,,2013-04-06 23:34:00,
2013-04-06 19:43:00,42.0,27.0,30.30,SW,236,2.0,15.0,54,-99.99,,,-99.99,,2013-04-06 23:43:00,
2013-04-06 19:53:00,42.0,27.0,30.30,SW,236,2.0,15.0,54,-99.99,,,-99.99,,2013-04-06 23:53:00,
2013-04-06 20:00:00,39.0,28.0,30.30,West,266,0.0,13.0,63,-99.99,,,-99.99,,2013-04-07 00:00:00,
2013-04-06 20:33:00,39.0,28.0,30.30,West,266,0.0,13.0,63,-99.99,,,-99.99,,2013-04-07 00:33:00,
2013-04-06 20:44:00,39.0,28.0,30.30,West,266,0.0,13.0,63,-99.99,,,-99.99,,2013-04-07 00:44:00,
2013-04-06 20:53:00,39.0,28.0,30.30,West,266,0.0,13.0,63,-99.99,,,-99.99,,2013-04-07 00:53:00,
2013-04-06 21:00:00,35.0,27.0,30.30,West,275,0.0,8.0,74,-99.99,,,-99.99,,2013-04-07 01:00:00,
2013-04-06 21:24:00,35.0,27.0,30.30,West,275,0.0,8.0,74,-99.99,,,-99.99,,2013-04-07 01:24:00,
2013-04-06 21:33:00,35.0,27.0,30.30,West,275,0.0,8.0,74,-99.99,,,-99.99,,2013-04-07 01:33:00,
2013-04-06 21:43:00,35.0,27.0,30.30,West,275,0.0,8.0,74,-99.99,,,-99.99,,2013-04-07 01:43:00,
2013-04-06 21:53:00,35.0,27.0,30.30,West,275,0.0,8.0,74,-99.99,,,-99.99,,2013-04-07 01:53:00,
2013-04-06 22:00:00,33.0,27.0,30.30,WSW,255,3.0,7.0,79,-99.99,,,-99.99,,2013-04-07 02:00:00,
2013-04-06 22:24:00,33.0,27.0,30.30,WSW,255,3.0,7.0,79,-99.99,,,-99.99,,2013-04-07 02:24:00,
2013-04-06 22:33:00,33.0,27.0,30.30,WSW,255,3.0,7.0,79,-99.99,,,-99.99,,2013-04-07 02:33:00,
2013-04-06 22:43:00,33.0,27.0,30.30,WSW,255,3.0,7.0,79,-99.99,,,-99.99,,2013-04-07 02:43:00,
2013-04-06 22:52:00,33.0,27.0,30.30,WSW,255,3.0,7.0,79,-99.99,,,-99.99,,2013-04-07 02:52:00,
2013-04-06 23:00:00,33.0,28.0,30.30,WSW,252,3.0,7.0,81,-99.99,,,-99.99,,2013-04-07 03:00:00,
2013-04-06 23:35:00,33.0,28.0,30.30,WSW,252,3.0,7.0,81,-99.99,,,-99.99,,2013-04-07 03:35:00,
2013-04-06 23:44:00,33.0,28.0,30.30,WSW,252,3.0,7.0,81,-99.99,,,-99.99,,2013-04-07 03:44:00,
2013-04-06 23:55:00,33.0,28.0,30.30,WSW,252,3.0,7.0,81,-99.99,,,-99.99,,2013-04-07 03:55:00,